GFSMA_con_3kmhel_165.txt.gz
Helicity
39 35 33 29 25 26 27 27 30 36 46 60 73 89 100 114 127 126 135 123 117 127 146 156 116 176 92 75 86 103 122 141 134 136 142 134 130 124 123 168 195 108 32
49 47 47 49 45 38 34 34 36 34 34 37 41 58 82 96 97 114 124 119 129 113 123 124 153 129 160 100 86 110 127 132 138 140 145 148 144 149 154 205 265 132 101
65 53 42 40 38 31 29 32 33 29 34 34 37 41 36 35 57 89 102 108 111 116 99 105 121 135 145 151 116 98 121 140 144 146 160 163 171 156 171 214 166 46 83
84 65 58 54 52 37 37 35 29 28 37 44 50 42 34 31 31 43 81 111 130 129 126 107 108 120 142 156 139 115 99 126 140 147 145 180 193 158 138 164 125 66 62
101 82 64 55 47 32 34 28 25 19 25 27 28 34 30 37 52 68 91 117 140 148 143 133 142 127 134 164 165 141 107 81 125 141 163 147 185 170 136 127 125 135 70
103 79 56 55 44 29 27 24 21 16 8 13 30 9 20 22 38 86 155 120 116 162 178 172 142 155 128 129 158 161 127 94 62 128 128 158 153 157 158 134 128 122 95
92 76 58 53 45 34 23 18 16 25 15 7 -48 47 29 89 65 206 120 157 133 210 210 206 181 141 143 106 118 147 121 128 66 86 130 151 163 141 149 148 138 127 115
84 74 74 71 65 45 34 29 21 13 5 -4 -49 -85 24 87 132 134 188 137 166 167 177 186 194 181 140 225 212 187 152 137 152 64 73 116 144 162 149 160 141 153 151
69 60 54 57 58 47 29 16 11 5 -4 -17 -35 -56 -36 0 130 52 120 130 170 143 149 147 166 164 153 130 151 167 198 150 116 138 78 104 119 152 138 163 154 154 172
84 70 65 59 52 38 38 15 -7 -13 -28 -13 -19 15 25 19 34 120 100 119 122 129 139 124 107 124 125 89 119 157 232 285 173 105 116 108 97 131 103 124 160 156 170
80 79 69 58 53 45 42 26 13 -12 -35 -35 -31 -1 0 -3 81 53 92 137 109 124 126 120 126 92 122 90 84 99 197 296 243 183 136 129 95 117 157 115 144 153 148
65 76 66 58 47 39 43 32 19 -6 -32 -49 -38 -26 -17 -2 35 47 93 111 144 166 164 110 104 83 87 111 123 154 169 264 286 218 180 149 134 107 185 89 117 133 126
69 71 72 69 58 44 27 17 22 11 -8 -28 -28 -47 -56 -47 -30 12 45 75 119 134 67 159 168 167 200 197 225 285 243 223 294 267 205 197 160 160 189 147 110 95 98
55 55 62 61 56 43 27 9 -1 5 1 -18 -10 -25 -51 -58 -59 -50 -12 47 70 67 61 138 161 168 163 197 253 265 206 84 236 210 197 164 168 145 186 201 199 209 26
59 62 64 60 51 42 29 7 4 7 -6 -1 -2 -8 -34 -50 -62 -72 -62 -46 11 77 106 64 74 198 245 197 250 282 103 115 262 243 155 142 138 147 167 179 209 238 231
66 63 66 61 52 48 36 16 14 10 -4 2 -5 3 -6 -19 -33 -47 -72 -76 -56 -24 37 30 62 70 160 166 208 280 113 134 267 300 213 164 157 158 170 146 196 220 263
74 75 59 54 54 47 38 20 16 20 8 3 7 7 12 -6 -14 -18 -32 -47 -61 -45 -9 7 0 56 78 137 240 210 148 121 209 393 334 291 256 191 222 222 202 206 204
68 65 54 45 41 38 29 22 10 12 18 14 5 9 13 3 4 5 -5 -4 -31 -55 -28 -2 13 42 106 150 208 168 157 176 249 437 450 364 420 453 497 484 463 392 347
65 58 49 42 31 30 19 6 -2 -2 -3 -11 -15 -9 -4 -3 10 8 2 -2 -8 -39 -66 -78 -42 5 92 164 204 239 150 198 226 388 501 387 403 473 529 593 633 587 438
63 52 36 27 20 15 21 8 -5 -14 -10 -9 -15 -24 -8 -10 -5 -1 -4 17 20 -11 -28 -56 -64 -17 47 147 108 220 251 136 272 426 471 423 426 535 500 623 622 593 524
60 43 42 39 16 29 25 24 11 5 -3 0 -8 -7 4 12 -2 -1 -22 -1 17 15 15 9 -16 -32 43 125 170 160 189 204 326 456 415 516 436 468 517 586 629 544 540
56 51 47 31 23 32 44 41 19 10 13 20 31 20 16 33 6 1 8 12 28 11 16 24 32 37 25 56 63 91 136 113 177 450 378 429 417 544 417 714 672 519 530
49 55 48 30 43 50 49 38 35 24 24 23 23 26 25 26 28 -6 -2 3 11 41 14 10 27 56 50 25 43 67 103 128 154 325 516 486 669 561 636 600 610 675 687
56 53 45 43 38 29 44 40 31 24 13 15 19 32 32 41 54 24 10 14 11 10 30 15 20 26 50 68 19 30 68 82 96 154 167 235 330 391 358 438 537 517 457
66 55 42 40 35 32 53 55 22 27 30 32 27 32 35 41 68 59 28 22 4 9 -2 37 45 60 77 124 143 54 142 106 83 95 161 76 122 207 261 351 458 584 449
61 48 46 37 36 45 58 71 36 33 43 29 28 27 58 51 65 74 31 18 9 11 20 33 44 52 68 90 132 101 84 74 78 64 140 79 98 119 98 60 154 247 289

GFSMA_con_3kmhel_168.txt.gz
Helicity
45 40 40 39 38 34 31 23 23 21 22 27 39 49 61 67 75 89 100 99 92 79 95 129 122 120 134 151 124 73 79 112 123 126 132 135 144 145 144 141 187 157 63
54 49 49 51 48 41 38 33 33 28 27 28 32 39 43 52 66 82 87 91 79 73 61 75 111 121 118 142 167 121 78 95 120 125 137 141 152 156 164 148 187 198 195
61 53 50 49 50 35 35 40 41 42 41 44 43 42 38 41 56 61 75 89 102 68 61 48 74 101 101 114 155 170 108 82 110 128 132 153 159 174 180 182 171 198 228
93 81 80 76 68 53 56 54 47 44 46 45 46 45 53 64 67 61 56 82 100 114 110 79 54 78 114 106 122 158 147 98 89 117 133 154 167 178 183 183 222 218 272
121 107 91 77 67 60 59 53 50 42 37 37 37 36 43 56 72 92 114 114 96 142 135 120 80 56 64 92 105 151 174 124 86 88 124 146 173 182 203 179 217 245 264
110 96 86 84 65 57 53 48 44 36 15 22 20 18 35 44 64 109 111 108 118 143 175 178 173 156 10 32 70 110 150 164 110 83 82 129 168 187 189 222 203 214 224
96 95 87 78 63 54 43 36 26 30 15 17 -7 58 34 60 103 146 111 88 93 121 153 192 181 209 207 50 30 21 93 167 146 105 82 88 163 182 203 199 221 185 176
80 69 71 57 56 52 55 48 36 19 -9 -2 -17 -37 35 63 36 67 118 123 165 139 153 136 162 179 176 181 255 226 175 194 233 178 177 84 110 197 187 187 204 188 178
73 71 70 56 61 59 62 58 43 22 -2 -19 -18 -31 -27 55 81 31 80 77 67 81 79 108 127 142 155 156 149 122 115 202 202 195 167 157 97 158 192 182 185 204 173
73 70 60 61 65 61 70 60 45 24 2 1 -16 -25 -15 1 40 84 96 64 68 95 76 71 111 134 140 121 136 105 137 162 213 207 202 177 130 108 181 176 181 202 182
83 81 73 74 73 66 68 59 56 46 20 -7 -21 -13 -37 -44 16 49 132 144 123 93 75 78 85 109 149 194 243 202 234 276 246 256 221 190 159 115 93 147 171 170 135
62 79 81 80 73 71 66 53 46 41 30 6 -15 -24 -30 -18 28 65 137 177 211 123 106 105 169 127 142 190 299 315 325 212 242 274 332 243 180 173 133 110 230 186 116
81 89 87 82 70 65 56 47 45 36 25 13 5 -15 -33 -40 -36 -8 55 144 220 152 57 36 105 54 56 89 143 224 275 107 215 235 324 303 181 132 129 123 134 353 82
92 90 76 65 66 64 51 46 39 34 25 17 14 -3 -25 -23 -26 -40 -19 79 201 110 86 71 56 63 78 73 141 247 132 51 118 173 241 272 233 159 124 132 114 136 138
90 70 63 65 70 67 57 41 42 43 24 22 14 13 -7 -10 -16 -24 -40 -46 15 151 129 67 80 72 30 83 152 169 64 21 95 159 225 273 222 184 156 135 169 177 187
80 71 75 78 77 67 58 48 48 45 32 20 5 13 8 2 -4 -6 -11 -20 -40 -34 12 11 31 28 30 78 123 176 60 30 89 206 287 336 388 287 201 162 145 187 206
86 88 83 89 82 70 70 61 49 45 36 21 13 13 20 17 5 1 -5 -2 -7 -21 -19 -43 -46 -21 39 86 151 129 81 24 33 238 379 429 461 478 458 343 173 129 149
95 96 88 81 79 68 66 60 45 40 29 18 8 19 19 -1 -0 -8 -16 -1 5 -8 -7 -6 -41 -33 3 57 96 102 51 68 73 169 357 473 466 509 536 571 502 322 170
107 105 95 79 76 66 59 50 39 32 25 16 12 17 17 5 -1 -7 -3 -0 -1 -11 -0 -8 -16 -42 -42 16 76 86 40 52 90 190 216 398 454 475 517 618 611 593 436
108 100 95 73 76 73 65 47 37 28 24 16 10 13 23 15 14 18 5 19 27 16 12 7 3 -1 -15 -7 17 77 78 6 62 159 189 252 422 538 565 589 660 642 593
101 91 87 74 79 68 50 29 24 26 26 29 29 14 17 15 8 10 -6 12 28 23 30 35 33 32 37 63 47 100 84 39 -2 83 80 217 217 338 387 547 595 641 607
94 87 87 76 66 55 50 46 23 25 35 39 30 24 25 41 14 8 13 8 18 21 28 35 40 60 74 68 16 10 34 82 56 93 27 77 177 249 287 367 533 616 691
90 86 70 58 58 58 42 33 18 39 37 28 35 34 34 34 41 12 26 21 23 36 16 13 39 54 70 95 69 10 -16 2 44 117 101 47 106 123 394 476 445 576 529
86 85 76 61 58 57 48 23 -15 37 33 34 44 43 46 52 61 28 20 25 28 22 27 17 23 31 45 73 69 29 13 -63 -13 57 161 91 123 124 114 250 464 457 638
92 90 68 62 56 61 43 22 -28 41 48 38 38 55 49 56 70 59 43 44 35 36 22 30 35 42 47 76 83 46 107 48 -10 12 100 87 128 133 57 61 181 408 524
86 77 69 63 53 54 61 49 20 46 42 37 50 54 84 56 73 81 62 53 50 46 40 35 33 37 48 58 88 55 65 73 64 9 63 91 114 136 105 26 64 190 217

GFSMA_con_3kmhel_171.txt.gz
Helicity
37 31 36 36 36 32 35 29 35 29 27 27 26 19 22 28 35 46 62 82 77 64 62 55 66 95 102 109 122 119 131 66 70 104 140 160 170 179 186 168 162 144 95
52 49 57 62 61 46 44 41 51 40 39 41 40 38 33 29 24 25 39 54 68 50 36 48 47 59 91 100 99 126 116 131 64 83 120 151 170 183 178 178 188 185 135
46 42 60 65 70 56 58 58 57 57 55 50 45 44 41 41 39 44 51 51 53 57 18 -5 28 49 53 77 96 93 118 122 103 65 97 139 165 185 186 192 194 194 178
83 82 96 99 93 80 87 89 80 72 61 52 49 40 40 39 48 56 44 71 90 81 110 63 6 26 44 34 57 88 102 112 117 82 71 117 152 181 198 194 195 200 210
76 67 76 74 68 64 66 65 63 47 43 34 29 20 8 17 21 56 128 146 69 91 97 132 85 26 52 61 -1 22 70 119 133 109 73 81 141 171 197 200 203 219 210
85 85 78 80 76 82 91 92 88 70 39 45 33 11 10 -9 63 186 120 158 148 181 136 178 174 195 79 53 31 14 35 69 111 139 89 65 99 161 191 202 207 224 223
95 88 85 84 88 91 88 82 71 72 51 40 3 48 -23 19 170 114 92 156 128 106 68 79 103 153 214 159 70 78 98 150 132 133 157 95 70 106 184 199 210 218 221
88 77 82 72 74 66 72 71 67 57 40 27 13 -43 22 41 72 76 131 107 108 101 102 94 90 112 176 244 255 29 83 108 173 259 217 194 98 109 124 192 215 219 224
75 79 68 56 51 51 67 67 71 64 61 58 27 -12 -44 38 85 -0 89 107 94 75 93 89 127 107 149 200 268 411 477 407 323 271 308 230 197 94 122 148 194 234 232
81 75 55 56 63 62 73 68 74 67 67 66 44 24 -24 -31 21 117 81 45 70 85 91 94 120 165 143 142 235 327 377 294 315 271 311 354 222 177 82 82 158 213 229
76 75 76 77 75 70 77 73 68 62 54 52 45 37 21 -25 31 13 98 168 112 94 93 79 27 1 37 60 121 195 280 196 231 232 236 288 329 235 177 121 93 181 200
76 83 71 74 83 91 90 74 65 61 51 40 37 29 26 -0 -12 -18 28 56 124 108 126 21 -32 -24 -9 -17 60 180 194 59 114 168 188 232 275 265 193 162 115 123 219
84 83 87 97 93 89 82 67 59 49 50 45 46 34 19 2 -10 -25 -28 3 51 10 19 -15 -0 -48 -17 13 60 188 195 -27 17 43 118 160 230 248 203 135 129 102 61
112 106 103 104 100 90 70 52 56 52 47 45 48 35 11 10 -1 -20 -36 -40 6 -20 -13 35 -0 -38 -8 14 80 210 187 44 56 76 110 165 170 217 225 147 121 127 131
112 116 119 107 94 82 67 56 62 62 50 49 42 34 15 5 -14 -14 -23 -48 -59 1 18 9 23 -6 -7 15 65 113 112 43 61 91 167 180 201 217 233 213 187 119 67
130 129 123 104 91 84 79 64 67 66 66 51 35 28 14 1 -14 -15 -18 -27 -43 -39 -31 -22 -0 -17 -31 -24 22 79 67 51 64 81 148 235 274 319 310 276 307 273 161
131 136 119 105 94 89 84 73 74 75 65 46 37 30 22 13 -6 -2 -7 -7 -17 -27 -26 -27 -37 -26 -21 -24 -2 15 15 9 7 76 104 175 278 390 455 401 410 418 355
137 133 117 108 99 87 89 78 78 77 67 60 49 44 36 14 24 25 16 22 7 -22 -27 -20 -18 -18 -12 -15 -14 5 -9 -8 -13 44 63 114 196 324 425 457 421 450 437
151 138 127 116 99 85 90 80 87 80 66 55 44 37 26 26 28 22 19 19 14 -4 -6 -23 -19 -25 -15 -3 11 13 8 5 -14 34 48 59 79 186 260 440 454 445 403
171 146 135 114 98 94 96 80 73 68 61 52 40 29 27 20 18 25 17 24 29 19 19 7 2 -0 3 43 3 19 47 -26 8 9 28 38 49 82 162 211 359 402 470
150 127 115 92 88 90 84 62 65 64 53 45 30 13 19 17 12 21 12 24 36 32 32 31 29 23 27 77 73 48 1 19 -30 -3 32 3 26 33 47 109 223 364 405
122 118 103 88 72 81 85 60 46 47 36 30 24 18 22 34 16 16 38 25 22 20 26 23 22 32 46 62 64 55 30 22 -6 36 43 7 32 27 16 100 190 234 274
106 105 79 72 76 89 69 30 7 41 30 32 24 11 23 25 37 12 33 38 43 47 25 13 25 30 43 69 86 76 83 45 2 -8 32 -8 41 41 48 82 233 194 273
102 92 87 80 86 93 74 13 4 6 45 45 41 37 42 46 60 64 38 47 40 35 28 15 21 24 24 35 47 33 57 59 8 -22 -7 -39 29 80 30 28 152 227 341
115 108 92 97 86 81 77 27 38 42 57 52 53 63 55 62 86 94 63 67 63 56 43 37 35 44 47 66 78 50 90 70 67 12 16 1 25 63 5 13 46 203 248
127 112 107 103 108 78 79 71 80 49 61 38 49 58 90 72 81 90 74 74 73 62 59 56 57 63 60 58 73 49 52 59 70 18 59 50 39 41 3 40 37 112 147

GFSMA_con_3kmhel_177.txt.gz
Helicity
149 110 98 76 71 73 65 63 77 80 91 91 85 85 71 77 75 82 84 99 99 130 142 142 149 140 106 105 98 121 127 148 138 136 120 99 68 89 110 135 168 181 173
135 110 104 100 108 105 83 96 94 98 99 101 103 84 85 85 90 90 126 155 154 158 173 195 185 207 202 130 139 139 155 137 136 141 140 123 107 73 110 141 172 186 178
148 119 104 105 112 101 118 110 111 109 119 114 105 113 108 120 134 194 185 135 166 225 169 162 167 162 159 211 228 202 151 155 132 134 122 115 104 91 94 148 171 176 181
147 88 79 110 133 148 122 106 111 121 125 105 129 132 146 136 138 157 149 212 201 178 167 209 208 196 194 205 225 234 216 165 145 134 141 126 135 73 77 117 158 170 173
150 103 107 124 157 138 107 97 97 99 89 101 114 102 119 95 119 166 210 197 162 142 113 108 156 194 194 235 258 270 314 354 295 221 129 139 147 162 16 94 142 168 172
129 128 117 130 151 101 95 84 101 103 77 90 75 77 85 136 120 139 96 91 105 127 119 119 67 100 181 201 188 236 234 284 323 344 351 361 268 204 165 5 103 139 182
104 110 107 138 133 97 104 87 75 85 71 86 62 92 97 83 187 111 31 44 44 106 186 97 57 47 83 154 190 201 214 240 251 261 243 282 364 405 305 220 125 111 153
97 101 134 130 131 104 112 79 75 43 30 68 39 41 113 90 113 115 41 44 121 192 297 117 105 65 29 12 104 168 150 225 242 240 206 230 279 285 288 253 192 184 80
100 115 117 118 113 76 74 53 57 53 49 56 59 38 67 89 94 51 50 78 158 170 166 98 46 14 -14 -7 27 89 119 170 199 178 175 168 178 212 224 217 174 153 128
89 101 106 108 94 61 77 59 60 48 40 50 34 55 42 42 63 55 79 137 166 135 105 5 -26 -50 -42 -2 63 129 98 118 138 129 96 133 171 190 200 213 197 169 139
72 86 96 94 92 75 77 76 73 70 68 48 66 59 49 38 19 22 49 195 171 109 63 -30 -47 -55 11 34 72 116 87 77 97 98 68 71 121 140 151 174 189 161 207
69 92 108 82 82 90 82 74 89 81 80 65 60 76 79 35 20 22 47 103 110 71 32 -5 -36 -48 -25 -4 62 100 63 47 62 64 50 30 48 92 116 111 138 176 184
94 102 103 101 91 96 107 91 115 105 83 74 69 86 97 80 70 35 43 59 71 22 18 1 14 -14 4 -39 1 38 67 63 82 103 113 130 134 130 134 176 167 173 294
133 123 125 122 117 134 136 112 126 126 118 96 98 102 81 99 81 42 31 24 32 18 8 -22 4 -59 -25 -16 -8 12 -19 37 71 86 98 108 115 115 118 139 149 165 296
163 183 171 154 140 173 161 131 137 129 120 83 80 84 80 79 62 63 57 38 12 34 -18 -6 5 -36 -59 -17 -10 -9 -34 -1 14 48 57 86 105 111 119 127 135 162 263
207 233 218 174 156 189 143 123 137 113 118 86 78 93 80 54 54 71 39 14 16 9 -28 -6 2 -41 -54 0 4 28 -31 -30 -18 11 26 42 71 90 109 128 153 166 248
235 228 199 176 152 169 160 118 128 110 106 101 88 88 79 72 60 53 35 20 27 19 -17 -5 -19 -36 -14 37 65 61 44 -38 -46 23 2 17 43 81 85 116 129 185 238
242 207 179 158 142 154 148 137 120 99 87 91 79 77 82 55 55 35 33 36 21 9 -13 -24 -21 -11 7 28 23 33 39 -6 -26 45 -5 7 23 43 70 92 109 141 204
249 211 161 132 132 138 159 138 92 86 95 71 62 66 48 35 24 11 18 31 17 -2 9 -17 -24 -12 1 44 67 55 40 22 -9 39 8 31 5 36 44 71 121 120 162
303 254 205 195 190 176 168 152 124 98 90 83 59 51 62 42 21 16 5 -16 5 -1 -7 -14 -18 -13 5 38 1 18 73 46 1 32 16 23 28 32 59 55 89 139 138
255 232 193 196 187 185 148 136 110 104 92 76 66 56 71 72 69 32 -2 -18 -17 -18 -28 -22 -20 -20 1 19 27 -5 -10 19 -46 -12 33 -17 25 -15 -22 37 54 130 135
225 206 179 174 180 149 148 133 101 91 82 79 66 53 52 80 76 53 28 50 16 -13 -23 -32 -42 -37 -24 -26 7 -8 -13 -23 -35 25 43 -16 52 49 -26 -25 93 106 148
168 174 162 167 167 131 132 120 91 63 68 74 63 40 33 48 94 70 68 55 35 17 -13 -22 -39 -55 -36 -42 -40 5 27 4 -42 -40 -3 -5 80 71 -1 -12 96 98 157
144 143 123 162 147 116 112 96 82 38 50 83 76 52 28 41 54 37 26 28 20 19 7 -17 -17 -31 -22 -36 -14 -1 16 56 -16 9 46 9 93 90 43 -55 97 124 159
145 133 139 162 155 130 112 106 91 60 94 97 77 50 20 36 63 66 39 36 44 60 56 87 106 92 85 90 88 67 113 99 76 39 92 22 64 120 44 -24 6 138 148
141 267 246 191 158 152 131 128 121 115 106 96 93 66 45 42 61 56 32 35 53 52 57 69 51 67 93 103 136 124 99 61 47 51 64 64 54 76 35 16 24 88 95